Content
SEND FEEDBACK

Daily
Averages
Monthly
Summary
United States of America

ORANGE LAKE, NEW YORK


Home > North America > United States > New York
Elevation: 581 feet     Latitude: 41 47N     Longitude: 074 58W

WEATHER
 
SELECT A DAY
Number of Records: 151,297;   Date Range: 11/1/95 - 10/23/14
 
SHARE

PRINT THIS DATA

[ ← Previous Day ]
WEATHER ALMANAC - MAY 7, 2013
[ Next Day → ]
[ °C ]   °F
Weather ElementAverageHighLow
Temperature63 °F73.9 °F (2:51 pm)52 °F (4:51 am)
Dewpoint52.5 °F57 °F (8:51 pm)46 °F (4:51 am)
Humidity69.4 %83 % (1:51 am)53 % (2:51 pm)
Barometer30.14 in30.19 in (9:06 am)30.09 in (4:51 pm)
Wind Speed5.6 mph9.2 mph (11:51 pm)
Weather ElementAverage
Visibility9.9 mi
Wind DirectionNE (47.9 °)

Weather ElementTotal
Precipitation---
Heating Degree Days2.1 (Base 65)
Growing Degree Days13 (Base 50)
Averaged from 29 records on May 7, 2013
WEATHER CONDITIONS BREAKOUT
WIND DIRECTION BREAKOUT
WEATHER BY HOUR - MAY 7, 2013
[ °C ]   °F
Local TimeTemperatureDewpointHumidityBarometerVisibilityWind DirectionWind SpeedGust SpeedPrecipitationEventsConditions
1:51 AM53.1 °F48.0 °F83 %30.15 in10.0 miNE (40°)3.5 mphClear
2:51 AM54.0 °F46.9 °F77 %30.14 in10.0 miNE (50°)3.5 mphClear
3:51 AM53.1 °F46.9 °F80 %30.14 in10.0 miENE (70°)5.8 mphClear
4:51 AM52.0 °F46.0 °F80 %30.13 in10.0 miNorthClear
5:51 AM53.1 °F48.0 °F83 %30.13 in10.0 miEast (80°)8.1 mphClear
6:51 AM53.6 °F48.2 °F82 %30.14 in8.0 miCalmScattered Clouds
7:51 AM55.0 °F48.9 °F80 %30.15 in10.0 miENE (70°)3.5 mphClear
8:51 AM57.9 °F48.0 °F70 %30.17 in10.0 miNE (50°)8.1 mphScattered Clouds
9:06 AM60.1 °F48.9 °F67 %30.19 in10.0 miVariable4.6 mphMostly Cloudy
9:51 AM61.0 °F51.1 °F70 %30.17 in10.0 miENE (60°)6.9 mphOvercast
10:28 AM63.0 °F52.0 °F67 %30.19 in10.0 miVariable6.9 mphScattered Clouds
10:36 AM63.0 °F52.0 °F67 %30.19 in10.0 miEast (100°)6.9 mphMostly Cloudy
10:51 AM64.0 °F52.0 °F65 %30.17 in10.0 miENE (70°)5.8 mphOvercast
11:51 AM66.9 °F53.1 °F61 %30.15 in10.0 miNE (50°)8.1 mphOvercast
12:15 PM68.0 °F54.0 °F61 %30.17 in10.0 miENE (60°)5.8 mphScattered Clouds
12:51 PM70.0 °F54.0 °F57 %30.14 in10.0 miEast (100°)8.1 mphClear
1:51 PM72.0 °F55.0 °F55 %30.12 in10.0 miENE (70°)8.1 mphClear
2:51 PM73.9 °F55.9 °F53 %30.11 in10.0 miVariable6.9 mphClear
3:51 PM72.0 °F55.9 °F57 %30.10 in10.0 miVariable5.8 mphClear
4:51 PM70.0 °F55.9 °F61 %30.09 in8.0 miEast (100°)5.8 mphClear
5:51 PM70.0 °F55.9 °F61 %30.09 in10.0 miSouth (170°)5.8 mphScattered Clouds
6:51 PM68.0 °F55.0 °F63 %30.09 in10.0 miVariable4.6 mphPartly Cloudy
7:39 PM66.9 °F55.9 °F68 %30.13 in10.0 miSouth (180°)4.6 mphMostly Cloudy
7:49 PM66.2 °F55.4 °F68 %30.13 in10.0 miVariable3.5 mphMostly Cloudy
7:51 PM66.0 °F55.9 °F70 %30.11 in10.0 miVariable3.5 mphMostly Cloudy
8:51 PM64.9 °F57.0 °F75 %30.12 in10.0 miVariable3.5 mphClear
9:51 PM64.0 °F57.0 °F78 %30.12 in10.0 miVariable4.6 mphOvercast
10:51 PM64.0 °F55.9 °F75 %30.12 in10.0 miVariable4.6 mphOvercast
11:51 PM62.1 °F55.0 °F78 %30.10 in10.0 miENE (70°)9.2 mphClear
Hourly data recorded from KNYC, located miles away from Orange Lake, New York







STORIES FROM OUR PARTNERS